This is the latest recevied weather packets stored in our database for station/object KJ5IIV. If no packets are shown the sender has not sent any weather packets the latest 10 day(s).
| Time | Temp. | Humidity | Pressure | Rain* | Wind** | Luminosity | Snow |
|---|---|---|---|---|---|---|---|
| 1778076079 | 13.89° C | 87% | 1012.3 hPa | 0 mm | - | 128 W/m² | - |
| 1778075775 | 13.33° C | 88% | 1012.2 hPa | 0 mm | - | 105 W/m² | - |
| 1778075472 | 13.33° C | 87% | 1012.4 hPa | 0 mm | - | 98 W/m² | - |
| 1778075168 | 13.33° C | 87% | 1012.2 hPa | 0 mm | - | 68 W/m² | - |
| 1778074864 | 13.33° C | 87% | 1012.1 hPa | 0 mm | - | 66 W/m² | - |
| 1778074562 | 13.33° C | 87% | 1012.3 hPa | 0 mm | - | 61 W/m² | - |
| 1778074259 | 13.89° C | 86% | 1012.2 hPa | 0 mm | - | 62 W/m² | - |
| 1778073956 | 13.89° C | 86% | 1012.3 hPa | 0 mm | - | 50 W/m² | - |
| 1778073653 | 13.89° C | 85% | 1012.2 hPa | 0 mm | - | 55 W/m² | - |
| 1778073350 | 13.89° C | 85% | 1012 hPa | 0 mm | - | 32 W/m² | - |
| 1778073046 | 13.89° C | 84% | 1012 hPa | 0 mm | - | 37 W/m² | - |
| 1778072743 | 13.89° C | 85% | 1012.2 hPa | 0 mm | - | 29 W/m² | - |
| 1778072441 | 13.89° C | 84% | 1012.1 hPa | 0 mm | - | 29 W/m² | - |
| 1778072139 | 13.89° C | 84% | 1011.9 hPa | 0 mm | - | 26 W/m² | - |
| 1778071837 | 13.89° C | 84% | 1011.7 hPa | 0 mm | - | 30 W/m² | - |
| 1778071534 | 13.89° C | 84% | 1011.9 hPa | 0 mm | - | 33 W/m² | - |
| 1778071232 | 13.89° C | 85% | 1011.7 hPa | 0 mm | - | 23 W/m² | - |
| 1778070929 | 13.89° C | 85% | 1011.7 hPa | 0 mm | - | 15 W/m² | - |
| 1778070627 | 14.44° C | 85% | 1011.4 hPa | 0 mm | - | 16 W/m² | - |
| 1778070324 | 14.44° C | 85% | 1011.2 hPa | 0 mm | - | 19 W/m² | - |
| 1778070022 | 14.44° C | 85% | 1011.2 hPa | 0 mm | - | 20 W/m² | - |
| 1778069719 | 14.44° C | 86% | 1011.1 hPa | 0 mm | - | 14 W/m² | - |
| 1778069415 | 14.44° C | 85% | 1011.1 hPa | 0 mm | - | 11 W/m² | - |
| 1778069114 | 15° C | 86% | 1011 hPa | 0 mm | - | 11 W/m² | - |
| 1778068811 | 15° C | 87% | 1011 hPa | 0 mm | - | 7 W/m² | - |
* Rain latest hour (hover to see other rain measurements)
** Current wind speed in m/s (hover to see current wind gust speed)